Location: Berkeley
(37.8716°N, 122.2727°W)
Time: 07:41:47
(UTC-07:00)

BlueWalker 3 - Pass Details

Date: 11 May 2026
Orbit: 447 x 457 km, 53.2° (Epoch: 5 June)

Event Time Altitude Azimuth Distance (km) Brightness Sun altitude
Exits shadow 02:52:17 20° 12° (NNE) 1,087 4.3 -28.8°
Drops below altitude 10° 02:53:47 10° 29° (NNE) 1,573 5.4 -28.7°
Sets 02:56:05 0° 41° (NE) 2,448 6.6 -28.4°
